Hourly Data Report for July 05, 2021

LYNN LAKE
MANITOBA
Current Station Operator: NAVCAN

56°51'50.000" N
101°04'34.000" W
356.60 m
5061645
71078
YYL

Download Data

Hourly Data (July 2021)
Hourly Data Report for July 5, 2021
TIME
LST
Temp Definition
°C
Dew Point Definition
°C
Rel Hum Definition
%
Precip. Amount Definition
mm

Wind Dir Definition
10's deg

Wind Spd Definition
km/h
Visibility Definition
km
Stn Press Definition
kPa
Hmdx Definition


Wind Chill Definition


Weather Definition


00:00 7.6 7.2 97 0.8 5 13 6.4 97.62     Rain, Fog
01:00 7.2 6.8 97 0.2 5 15 9.7 97.66     Fog
02:00 6.9 6.6 98 0.0 5 13 4.8 97.69     Fog
03:00 6.9 6.5 97 0.0 1 24 16.1 97.73     LegendNANA
04:00 6.7 6.1 96 0.0 3 18 16.1 97.80     LegendNANA
05:00 6.2 5.2 93 0.0 3 28 16.1 97.86     LegendNANA
06:00 6.1 5.1 93 0.0 4 22 16.1 97.95     LegendNANA
07:00 6.3 4.8 90 0.0 5 18 16.1 98.03     LegendNANA
08:00 6.7 5.2 90 0.0 4 9 16.1 98.08     LegendNANA
09:00 7.6 3.4 75 0.0 4 21 16.1 98.14     LegendNANA
10:00 7.8 3.1 72 0.0 8 17 16.1 98.20     LegendNANA
11:00 10.0 3.4 63 0.0 9 15 16.1 98.24     LegendNANA
12:00 11.4 4.0 60 0.0 6 15 16.1 98.25     LegendNANA
13:00 12.2 3.2 54 0.0 6 15 16.1 98.27     LegendNANA
14:00 14.2 4.2 51 0.0 2 18 16.1 98.27     LegendNANA
15:00 14.5 3.5 47 0.0 7 9 16.1 98.27     LegendNANA
16:00 14.7 3.0 45 0.0 2 11 16.1 98.30     LegendNANA
17:00 15.2 4.2 47 0.0 LegendMM 15 16.1 98.29     LegendNANA
18:00 14.9 3.8 47 0.0 9 8 16.1 98.33     LegendNANA
19:00 14.6 3.6 47 0.0 8 8 16.1 98.32     LegendNANA
20:00 14.2 3.8 49 0.0 9 9 16.1 98.34     LegendNANA
21:00 12.5 4.5 58 0.0 6 9 16.1 98.35     LegendNANA
22:00 10.3 3.8 64 0.0 7 5 16.1 98.39     LegendNANA
23:00 8.0 4.1 76 0.0 9 4 16.1 98.40     LegendNANA

Notes on Data Quality.

Legend

  • E = Estimated
  • M = Missing
  • NA = Not Available*
  • [empty] = Indicates an unobserved value
Date modified: